Regional Weather Roundup
Issued by NWS Charleston, SC

Current Version | Previous Version | Text Only | Print | Product List | Glossary On
Versions: 1 2 3 4 5 6 7 8 9 10 11 12 13 14 15 16 17 18 19 20 21 22 23 24 25 26 27 28 29 30 31 32 33 34 35 36 37 38 39 40 41 42 43 44 45 46 47 48 49 50
000 ASUS42 KCHS 050128 RWRCHS REGIONAL WEATHER ROUNDUP NATIONAL WEATHER SERVICE CHARLESTON SC 900 PM EDT WED MAY 04 2016 NOTE: "FAIR" INDICATES FEW OR NO CLOUDS BELOW 12,000 FEET WITH NO SIGNIFICANT WEATHER AND/OR OBSTRUCTIONS TO VISIBILITY. NOT ALL STATIONS ARE QUALITY CONTROLLED. USE DATA WITH CAUTION... ESPECIALLY DEWPOINT OBSERVATIONS. SCZ027-030-031-034>040-042>050-050200- ...SOUTHEAST SOUTH CAROLINA... CITY SKY/WX TMP DP RH WIND PRES REMARKS N CHARLESTON CLEAR 70 46 42 W7 29.64R WATERFRONT PRK N/A 74 48 39 VRB3 29.61R MOUNT PLEASANT FAIR 72 48 43 CALM 29.64R JOHNS ISLAND FAIR 66 52 59 CALM 29.64S PINOPOLIS N/A 73 48 40 W12 29.56R MONCKS CORNER FAIR 59 45 58 CALM 29.64S SUMMERVILLE FAIR 63 52 67 CALM 29.66R BEAUFORT MCAS CLEAR 70 47 43 W8 29.65R BEAUFORT ARPT FAIR 72 46 40 W8 29.65R HILTON HEAD IS CLEAR 70 52 52 NW5 29.67R WALTERBORO CLEAR 66 50 55 W5 29.66R ALLENDALE FAIR 64 50 59 CALM 29.66R ...SOUTHERN MIDLANDS AND PEE DEE... CITY SKY/WX TMP DP RH WIND PRES REMARKS GEORGETOWN FAIR 64 50 59 W3 29.64R KINGSTREE FAIR 63 52 67 W3 29.64R ORANGEBURG CLEAR 67 45 45 NW5 29.65R BARNWELL FAIR 64 52 63 CALM 29.67S AIKEN FAIR 61 46 59 W3 29.70S MANNING FAIR 61 48 63 CALM 29.64S COLUMBIA CLEAR 66 45 46 W3 29.64R SUMTER PTCLDY 64 46 50 W6 29.62R FLORENCE CLEAR 69 49 48 W7 29.63R MYRTLE BEACH PTCLDY 72 52 49 VRB6 29.63 N MYRTLE BEACH CLEAR 68 57 68 CALM 29.61R $$ GAZ063-065-086>088-099>101-113>116-118-119-134>141-150-050200- ...SOUTHEAST GEORGIA... CITY SKY/WX TMP DP RH WIND PRES REMARKS SAVANNAH ARPT PTCLDY 69 48 47 W7 29.67R HUNTER AAF CLEAR 67 51 55 W8 29.64R FORT STEWART CLEAR 68 49 49 W2 29.66R STATESBORO CLEAR 65 57 76 CALM 29.69R SYLVANIA CLEAR 65 53 65 CALM 29.69R CLAXTON FAIR 62 57 83 CALM 29.69R ...CSRA...CENTRAL AND FAR SOUTHEAST GEORGIA... CITY SKY/WX TMP DP RH WIND PRES REMARKS THOMSON CLEAR 61 52 71 CALM 29.73S AUGUSTA-BUSH PTCLDY 64 46 52 W6 29.67R AUGUSTA-DANIEL CLEAR 68 44 42 VRB3 29.68R SWAINSBORO FAIR 61 50 67 CALM 29.70S VIDALIA CLEAR 66 48 52 W3 29.70S EASTMAN FAIR 64 49 58 NW5 29.74R HAZLEHURST FAIR 64 54 68 CALM 29.70S ALMA CLEAR 66 50 56 CALM 29.70R WAYCROSS CLEAR 65 51 59 N3 29.70R JESUP FAIR 70 54 56 NW7 29.69R BAXLEY FAIR 66 52 59 NW3 29.69S BRUNSWICK CLEAR 73 55 53 W3 29.68R SAINT SIMONS PTCLDY 73 52 47 NW6 29.66R $$ SCZ027-028-034-036>038-045-046-048>050-GAZ119-141-050200- ...LAKE AND SUPPLEMENTAL COASTAL OBSERVATIONS... STATION/POSITION TIME TEMP WIND PRES WAVE SWELL AIR SEA DIR/SP/G HT/PER HT/PER/DIR (UTC) (F) (DEG/KT/KT) (MB) (FT/S) (FT/S/D) WINYAH BAY 0000 74 290/ 4 1002.0R LAKE MURRAY 0100 65 CALM / 2 1003.7R ACE BASIN NERRS 0000 72 280/ 1 1004.0R FORT PULASKI 0100 75 1004.5R SAPELO ISLAND 0100 72 310/ 7 1004.0S $$ ANZ835-935-AMZ111-154-330-350-352-354-370-450-454-472-050200- ...C-MAN AND BUOY OBSERVATIONS... STATION/POSITION TIME TEMP WIND PRES WAVE SWELL AIR SEA DIR/SP/G HT/PER HT/PER/DIR (UTC) (F) (DEG/KT/KT) (MB) (FT/S) (FT/S/D) BUOY 41004 0050 74 75 230/ 16/ 17 1002.8R 4/ 4 2/ 7 BUOY 41008 NOT AVBL FOLLY BEACH CMAN 0100 71 290/ 4/ 6 1003.7R CAPERS NEARSHORE 0108 73 72 290/ 12/ 16 1003.2R FRIPP NEARSHORE 0108 73 71 310/ 12/ 14 1003.1R STATION/POSITION TIME TEMP WIND PRES WAVE SWELL AIR SEA DIR/SP/G HT/PER HT/PER/DIR (UTC) (F) (DEG/KT/KT) (MB) (FT/S) (FT/S/D) 5E ST. MARYS GA 0021 73 N/A 2/ 6 FRYING PAN BUOY 0100 73 72 240/ 17/ 21 1002.5R BUOY 41025 0050 66 71 30/ 14/ 16 1002.0R 3/ 7 3/180/ 7 CAPE LOOKOUT NC 0100 69 CALM 1001.7R BUOY 41002 0050 74 74 190/ 17/ 21 1004.3R 5/ 6 2/100/ 9 BUOY 41010 0020 73 77 160/ 6/ 8 1004.7F ST AUGUSTINE FL 0100 69 71 180/ 2/ 3 1004.4F $$

USA.gov is the U.S. government's official web portal to all federal, state and local government web resources and services.